Showing default

COSMOS 2538, 44424

Orbit data source: Space-Track

COSMOS 2538, 44424 is a payload satellite owned by TsNIIKhM (CIS) in SSO that was launched on Wed, 10 Jul 2019 UTC via a SOYUZ-2-1V launch vehicle from the Plesetsk Missile And Space Complex (PKMTR). Payload-class satellites include a variety of spacecraft equipped with specific instruments for various scientific and technological missions. These include communications satellites like Starlink; space stations such as the ISS; scientific satellites like the Hubble; Earth observation satellites from companies like Planet Labs, Umbra, and HawkEye 360; GPS; miniature CubeSats for education and research; and military/defense satellites.

Loading next visibility...
Identifier
44424, 2019-039D
Orbit
SSO
Country
Flag of CISCIS
Related business
Manufacturer
TsNIIKhM
Mission
Operational Defense Technology
Bus & Motor
NIVELIR, Unknown motor
Mass
~100 kg wet, ~100 kg dry
Launch date (UTC)
2019-07-10 (6 years ago)
Launch vehicle
SOYUZ-2-1V
Launch site
Plesetsk Missile And Space Complex (PKMTR)
Object type
Payload
Rocket body
Debris
Shape & HBR
Hex Cyl + 1 Ant, 0.4 m
Radar Cross Section
0.503 m², Medium (>0.1 m² and < 1m²)

Expand to show TLE details & history
Last TLE update: 7 hours ago

TLE from 7 hours ago
0 COSMOS 2538
1 44424U 19039D   25348.98527838  .00004646  00000-0  22578-3 0  9999
2 44424  97.6081  62.2827 0043754 326.7828  33.0660 15.18107438351934
Epoch: 2025-12-14T23:38Z
TLE epoch observation values (Epoch: 2025-12-14T23:38:48.052Z)
Latitude
Longitude
-16.30786°
Altitude
489.414 km
Speed
7.634 km/s
True Right ascension
04h 09m 07s
True Declination
0° 00' 00"
Sunlit
Object was in full shadow at epoch
Visualization orbit readout
Latitude
Unknown
Longitude
Unknown
Altitude
Unknown
Speed
Unknown
Apparent Right ascension
Unknown
Apparent Declination
Unknown
Sunlit
N/A
Visualization observer readout
Local Sidereal Time
05:40:26
Azimuth
Unknown
Elevation
Unknown
Doppler factor
Unknown
Orbital elements
Apogee altitude
538.67 km
Perigee altitude
478.406 km
Semi-major axis
6,886.675 km
Eccentricity
0.00438
Inclination
97.6081°
RAAN
62.2827°
Arg. of periapsis
326.7828°
True anomaly
33.34082°
Mean anomaly
33.066°
Eccentric anomaly
33.20328°
Mean motion
3.79777 °/min
Orbital period
94.79 mins
BSTAR
0.00022578
Loading maneuver chart data...
Computing Atmospheric mass density...

Documentation

Showing up to 5 results
|